Weather in Vasylivka

Ukraine / Dnipropetrovsk Region     48°14′02″N   36°30′49″E
temp.,
°C
wind,
m/s
gust,
m/s
humid.,
%
clouds,
%
prec.,
mm/h
press.,
hPa
HPBL,
m
14 april, wed
wed1400:00+7s338960 0.0 102149
03:00+6s118939 0.0 102010
06:00+6e2290100 0.0 102013
09:00+9e1176100 0.0 1019252
12:00+11ssw017099 0.3 1017528
15:00+12ssw226779 0.4 1017674
18:00+14sw235731 0.0 1015941
21:00+10sw227429 0.0 101619
15 april, thu
thu1500:00+7ssw35810 0.0 1016102
03:00+7s3584100 0.0 1015126
06:00+6sse369397 0.0 1015119
09:00+10s5775100 0.0 1015662
12:00+12sse466685 0.1 1014756
15:00+13ssw697140 1.3 1014813
18:00+12s586860 1.8 10131002
21:00+9s358125 2.3 1014102
16 april, fri
fri1600:00+6s49915 0.0 1014239
03:00+5s389412 0.0 1015243
06:00+6sse4789100 0.0 1015355
09:00+7s5784100 0.0 1017630
12:00+9s6776100 0.1 1017864
15:00+11sw576482 0.5 10171148
18:00+10sw4770100 0.7 1017564
21:00+8ssw5884100 1.6 1019349
17 april, sat
sat1700:00+7ssw478797 0.8 1019326
03:00+4sw37895 0.9 1020179
06:00+3sw34905 0.0 102171
09:00+7ssw457388 0.0 1021645
12:00+7ssw4481100 0.0 1021737
15:00+9wsw3366100 0.1 10211050
18:00+9wsw2371100 0.1 1021355
21:00+8wsw2276100 0.2 102144
18 april, sun
sun1800:00+8sw227896 0.1 102134
03:00+8ssw227299 0.1 102132
06:00+7s117694 0.0 102013
09:00+10ese225790 0.0 1021577
12:00+12ne2249100 0.0 10211425
15:00+13nne334929 0.0 10211339
18:00+12nne445068 0.0 10211531
21:00+10n36695 0.0 1022143